User: anonymous
Location: Unspecified
(0.0000°N, 0.0000°E)
Time: 23:40:58
(UTC+00:00)
Language:

Aussat K3 - Orbit

View from above orbital plane
View from above orbital plane
View from above satellite
View from above satellite

Ground track
Ground track

The orbit data is extracted from the following two-line orbital elements,

1 18350U 87078A   14212.68388439 -.00000170  00000-0  00000+0 0  1402
2 18350 013.7440 029.3835 0002206 234.9584 114.4082 00.98908637 97605
Epoch (UTC): 31 July 2014 16:24:47
Eccentricity: 0.0002206
inclination: 13.7440°
perigee height: 36163 km
apogee height: 36182 km
right ascension of ascending node: 29.3835°
argument of perigee: 234.9584°
revolutions per day: 0.98908637
mean anomaly at epoch: 114.4082°
orbit number at epoch: 9760

The dashed part of the orbit path shows where the satellite is in the earth's shadow,  

DLR